Location: Bramstrup
(56.3632°N, 10.1529°E)
Time: 12:44:34
(UTC+00:00)

Daily predictions for brighter satellites

Satellite Brightness Start Highest point End
(mag) Time Altitude Azimuth Time Altitude Azimuth Time Altitude Azimuth
IRIDIUM 103 4.4 19:47:19 10° S 19:52:32 84° E 19:57:48 10° N
CZ-2C R/B 3.7 19:49:11 10° NNE 19:53:54 77° ESE 19:58:28 10° SSW
Cosmos 1821 Rocket 4.0 19:48:44 10° S 19:54:49 67° E 20:01:02 10° NNE
Cosmos 1862 Rocket 4.0 19:51:28 10° N 19:55:52 51° ENE 20:00:13 10° SSE
Intercosmos 25 3.9 19:50:37 10° NNW 19:55:58 72° W 19:59:34 10° S
SL-16 R/B 3.1 19:50:46 10° NNW 19:56:09 41° NE 20:01:30 10° ESE
COSMOS 2406 3.4 19:51:08 10° S 19:56:43 55° ESE 20:02:18 10° NE
Cosmos 1743 Rocket 4.3 19:53:25 10° SSW 19:57:50 60° WNW 20:02:18 10° N
Lacrosse 5 1.9 19:55:13 10° WNW 20:00:20 86° SSW 20:05:26 10° ESE
Cosmos 2369 4.1 19:55:31 10° NW 20:01:13 66° WSW 20:06:54 10° SSE
ERS-1 Rocket 3.4 19:56:55 10° SE 20:01:46 51° ENE 20:06:38 10° N
Cosmos 1862 3.5 20:01:55 10° SSW 20:05:58 81° WNW 20:10:04 10° N
Cosmos 2219 Rocket 4.2 20:02:09 10° NNW 20:06:33 22° NNE 20:10:54 10° ENE
Sich 1 3.1 20:02:28 10° S 20:06:54 72° E 20:11:21 10° NNE
BREEZE-M DEB (TANK) 3.5 20:06:27 10° SW 20:08:29 18° S 20:09:55 11° SE
NOSS 2 (A) 4.2 20:07:00 10° NW 20:09:55 87° SW 20:12:18 11° SE
Cosmos 2123 Rocket 4.0 20:04:10 10° N 20:10:25 82° ENE 20:16:40 10° SSE
Cosmos 2278 3.9 20:04:48 10° NW 20:10:33 77° WSW 20:16:15 10° SSE
Cosmos 2082 Rocket 2.9 20:06:53 10° S 20:11:58 34° ESE 20:17:03 10° NE
Spot 2 Rocket 3.6 20:12:40 10° SSE 20:17:47 81° WSW 20:22:56 10° NNW
Meteor 1-4 Rocket 2.6 20:14:52 10° NNW 20:18:23 75° WSW 20:21:51 10° S
Cosmos 2322 Rocket 2.9 20:13:11 10° NNW 20:18:40 46° NE 20:24:09 10° ESE
CZ-2C R/B 3.6 20:16:29 10° N 20:21:29 51° WNW 20:26:29 10° SW
Cosmos 1184 Rocket 3.5 20:21:21 10° SSE 20:24:23 35° E 20:27:27 10° NNE
CARTOSAT-1 3.6 20:20:13 10° SSE 20:24:31 69° ENE 20:28:51 10° NNW
Cosmos 1190 Rocket 4.2 20:19:34 10° S 20:24:41 53° ESE 20:29:52 10° NE
USA 234 3.7 20:18:54 10° SE 20:25:13 50° SW 20:31:34 10° WNW
Terra 2.2 20:21:08 10° SE 20:25:41 51° ENE 20:30:19 10° N
Cosmos 407 Rocket 3.5 20:22:20 10° SSW 20:27:36 65° ESE 20:32:51 10° NNE
Okean 1 3.7 20:23:57 10° N 20:27:54 49° ENE 20:31:27 12° SSE
Cosmos 1933 Rocket 4.5 20:24:16 10° SSE 20:28:10 32° E 20:32:06 10° NNE
Cosmos 1605 Rocket 4.2 20:22:26 10° SSE 20:28:17 50° E 20:34:09 10° NNE
Cosmos 1666 Rocket 3.5 20:24:10 10° S 20:28:29 79° E 20:32:51 10° NNE
Meteor 1-27 Rocket 4.5 20:23:04 10° NNW 20:28:50 56° W 20:34:36 10° S
Cosmos 1238 Rocket 3.1 20:28:02 13° SSE 20:30:16 28° E 20:32:53 10° NNE
Cosmos 1437 Rocket 3.4 20:28:46 10° N 20:32:25 40° ENE 20:35:27 14° SE
Cosmos 2360 Rocket 3.3 20:27:29 10° NNW 20:32:47 38° NE 20:38:03 10° ESE
Meteor 1-19 Rocket 4.3 20:31:57 10° N 20:37:21 62° ENE 20:42:13 13° SSE
ERBS 2.1 20:35:24 10° WSW 20:38:43 76° SSE 20:42:02 10° ENE
CZ-4B DEB 4.4 20:35:36 11° SSE 20:38:47 82° WSW 20:42:09 10° NNW
SPOT 5 2.6 20:35:54 11° SSE 20:40:00 82° ENE 20:44:25 10° NNW
USA 238 DEB 4.3 20:34:53 10° S 20:40:37 32° ESE 20:46:33 10° ENE
USA 238 4.4 20:35:01 10° S 20:40:44 31° ESE 20:46:39 10° ENE
Cosmos 1980 Rocket 2.7 20:36:05 10° NW 20:41:39 55° WSW 20:47:05 10° SSE
Cosmos 1703 Rocket 3.8 20:39:16 10° N 20:43:35 55° ENE 20:47:06 15° SSE
Cosmos 2242 Rocket 3.6 20:39:09 10° N 20:43:37 72° ENE 20:47:29 13° SSE
Iridium 4 Rocket 4.5 20:41:58 13° SE 20:44:43 23° E 20:48:01 10° NNE
Geosat 4.5 20:40:38 12° ESE 20:45:14 55° NE 20:50:09 10° NNW
SPOT 1/Viking Rocket 4.0 20:40:35 10° S 20:45:45 62° WSW 20:50:58 10° NNW
Cosmos 1763 Rocket 3.6 20:41:17 10° NNW 20:46:39 75° ENE 20:51:08 15° SE
Genesis I 4.3 20:44:10 10° WNW 20:47:42 34° SW 20:50:44 13° S
SL-4 R/B 3.0 20:46:37 10° SSW 20:49:32 21° SSE 20:51:35 14° ESE
BREEZE-M DEB (TANK) 3.4 20:47:00 10° SW 20:50:01 38° SSE 20:57:53 10° E
ATLAS 5 CENTAUR R/B 4.4 20:46:26 10° WNW 20:50:06 17° WSW 20:54:05 10° SSW
Cosmos 405 Rocket 3.1 20:49:21 15° SSE 20:52:10 41° E 20:55:43 10° NNE
Cosmos 2333 Rocket 3.7 20:47:39 10° NNW 20:52:46 31° NNE 20:57:50 10° E
Cosmos 1140 Rocket 3.5 20:48:00 10° SSW 20:53:15 79° ESE 20:58:32 10° NNE
Cosmos 2237 Rocket 4.4 20:52:13 10° NNW 20:56:30 21° NNE 21:00:46 10° ENE
Cosmos 1697 Rocket 4.3 20:52:17 10° NW 20:56:58 28° WSW 21:01:38 10° SSW
Cosmos 1023 Rocket 4.5 20:52:29 10° SSW 20:57:47 86° ESE 21:03:06 10° NNE
USA 32 4.1 20:54:02 10° S 20:59:17 90° WNW 21:04:34 10° N
Cosmos 1633 Rocket 3.5 20:57:26 10° SSW 21:01:51 65° WNW 21:06:16 10° N
Cosmos 1833 Rocket 2.8 20:56:49 10° SW 21:02:28 84° NW 21:08:09 10° NE
Meteor 1-18 Rocket 4.3 20:59:21 10° NNW 21:05:00 82° WSW 21:09:50 14° S
Okean 1-7 3.0 21:00:55 10° N 21:05:18 77° ENE 21:08:30 18° SSE
Cosmos 1867 3.7 21:03:32 10° SSW 21:08:46 50° SE 21:14:03 10° NE
CENTAUR R/B 3.4 21:04:45 13° SSE 21:09:13 29° ESE 21:15:10 10° ENE
Okean 3 4.2 21:07:10 10° N 21:11:17 43° ENE 21:14:00 19° SE
Resurs 01 Rocket 4.2 21:09:22 10° SW 21:12:09 16° W 21:14:58 10° NW
Meteor 2-4 Rocket 3.8 21:08:55 10° NNW 21:14:42 75° ENE 21:18:53 18° SSE
FALCON 9 DEB 4.2 21:12:26 10° SSW 21:15:17 24° SSE 21:15:22 24° SSE
Cosmos 1515 3.7 21:11:54 10° NNW 21:15:45 81° W 21:18:23 19° S
deb Kosmos-1763 4.1 21:15:49 10° SSW 21:19:27 81° WNW 21:23:08 10° NNE
Cosmos 44 3.3 21:14:42 10° NW 21:19:30 88° SW 21:23:09 19° SE
SL-27 R/B 3.8 21:19:37 20° ESE 21:20:05 21° ESE 21:22:39 10° NE
ATLAS 5 CENTAUR R/B 1.5 21:17:55 10° WNW 21:20:13 68° SSW 21:23:25 18° SE
SWARM C 4.5 21:17:27 10° N 21:20:48 87° E 21:22:47 23° S
SWARM A 4.2 21:17:32 10° N 21:20:53 86° W 21:22:57 22° S
Cosmos 676 Rocket 4.0 21:16:49 10° SSW 21:22:10 85° ESE 21:27:33 10° NNE
Meteor 1-25 Rocket 4.3 21:18:49 10° SSW 21:24:24 83° WNW 21:30:05 10° NNE
Cosmos 1470 Rocket 3.9 21:20:09 10° SSW 21:24:33 66° WNW 21:28:57 10° N
USA 267 3.2 21:23:21 10° ENE 21:29:55 72° SSE 21:36:28 10° WSW
Spot 4 4.2 21:27:26 20° SE 21:30:35 54° ENE 21:35:18 10° N
Cosmos 921 Rocket 4.3 21:27:57 10° NW 21:31:42 31° WSW 21:34:50 13° SSW
NOSS 3-2 (A) 3.5 21:29:07 10° SSW 21:34:49 56° SE 21:41:25 10° NE
SAR-Lupe-2 4.2 21:34:58 10° N 21:38:30 56° WNW 21:41:55 11° SSW
Cosmos 841 Rocket 3.5 21:33:24 10° NNW 21:38:39 84° WSW 21:42:01 23° SSE
Cosmos 540 Rocket 3.5 21:34:53 10° NNW 21:40:06 84° WSW 21:43:22 23° SSE
SL-16 R/B 2.5 21:34:58 10° NW 21:40:34 61° WSW 21:44:17 21° S
ERS-1 Rocket 4.3 21:36:15 10° SSW 21:40:46 33° W 21:45:20 10° NNW
NOSS 3-2 (C) 3.8 21:35:51 13° SSW 21:40:51 43° SE 21:47:07 10° NE
COSMOS 2406 4.5 21:35:44 10° WSW 21:41:14 44° NW 21:46:44 10° NNE
OPS 6432 4.1 21:38:42 10° SW 21:42:21 74° SE 21:45:22 10° NE
Lacrosse 5 2.5 21:38:17 10° WNW 21:43:01 40° SW 21:45:31 24° SSE
Cosmos 2322 4.2 21:37:34 10° NNW 21:43:10 54° NE 21:47:37 16° ESE
Cosmos 1570 Rocket 4.1 21:44:36 10° NNW 21:49:54 70° WSW 21:53:10 24° SSE
Tsikada Rocket 4.2 21:44:22 10° N 21:50:45 64° ENE 21:54:55 22° SSE
Cosmos 2219 Rocket 3.0 21:46:21 10° NNW 21:51:53 48° NE 21:56:38 14° ESE
Cosmos 2208 Rocket 4.0 21:46:43 10° NNW 21:52:02 77° WSW 21:55:11 25° SSE
Cosmos 1741 Rocket 4.0 21:48:23 17° S 21:52:20 65° ESE 21:57:36 10° NNE
Cosmos 1814 Rocket 4.0 21:47:12 10° NNW 21:52:25 80° WSW 21:55:32 25° SSE
Cosmos 2082 Rocket 2.7 21:50:10 10° SW 21:55:49 63° NW 22:01:29 10° NNE
Cosmos 2237 4.2 21:51:18 10° NW 21:57:03 81° WSW 22:00:34 24° SSE
Cosmos 2084 Rocket 4.4 21:59:01 27° SE 21:59:23 27° SE 22:03:02 10° ENE
Cosmos 2322 Rocket 2.6 21:57:22 10° NW 22:02:53 52° WSW 22:06:13 23° S
Terra 3.3 22:00:02 13° SSW 22:03:40 30° W 22:07:54 10° NNW
EO 1 Del DPAF 4.0 22:00:27 10° NNE 22:03:56 35° E 22:04:57 29° SE
SL-16 R/B 4.4 22:02:19 10° NNW 22:06:48 23° NNE 22:11:18 10° ENE
Cosmos 1437 Rocket 4.4 22:05:20 10° NW 22:08:31 25° W 22:10:50 15° SW
Cosmos 2100 Rocket 4.0 22:05:35 17° SSW 22:10:27 82° WNW 22:16:39 10° N
Cosmos 1242 Rocket 2.6 22:07:13 10° N 22:10:49 68° ENE 22:12:07 36° SE
Meteor 1-11 Rocket 3.9 22:09:09 25° S 22:12:24 62° E 22:18:06 10° NNE
ERBS 2.3 22:11:43 10° W 22:15:02 78° N 22:18:11 11° E
Helios 1A 4.2 22:13:11 19° ESE 22:15:32 34° ENE 22:19:22 10° N
Cosmos 1869 Rocket 3.8 22:13:02 21° SSW 22:15:56 68° WNW 22:20:25 10° N
MTI 4.2 22:14:03 10° N 22:17:07 56° WNW 22:18:30 28° SW
Cosmos 2360 Rocket 2.3 22:11:32 10° NW 22:17:12 68° WSW 22:20:19 27° SSE
COSMOS 2428 3.1 22:12:39 10° NNW 22:18:21 60° NE 22:22:37 18° SE
ATLAS 3B R/B 3.2 22:21:13 25° SSE 22:24:00 36° ESE 22:29:58 10° ENE
CRYOSAT 2 4.3 22:19:09 10° N 22:24:05 87° W 22:26:46 27° S
Cosmos 1980 Rocket 4.5 22:22:16 10° WNW 22:24:26 12° W 22:26:36 10° WSW
Iridium 4 Rocket 3.6 22:21:45 21° SSW 22:24:26 52° W 22:28:34 10° N
Cosmos 2173 Rocket 4.2 22:21:11 17° SSW 22:26:04 71° WNW 22:32:12 10° N
Cosmos 1500 3.8 22:25:10 22° SW 22:27:18 50° WNW 22:30:59 10° N
SL-4 R/B 2.9 22:25:06 10° WSW 22:27:13 27° SW 22:27:13 27° SW
ALOS 2 2.5 22:27:44 33° SSE 22:29:43 88° ENE 22:34:09 10° NNW
USA 238 DEB 3.7 22:24:09 10° SW 22:30:53 89° SSE 22:37:59 10° NE
USA 238 3.7 22:24:15 10° SW 22:31:00 89° SE 22:38:05 10° NE
Cosmos 1725 Rocket 4.0 22:27:20 24° S 22:31:19 81° E 22:37:41 10° NNE
Cosmos 1674 Rocket 3.5 22:27:02 10° NNW 22:31:23 90° W 22:33:13 34° S
SL-08 R/B 4.4 22:32:18 24° S 22:36:08 88° E 22:42:17 10° NNE
Cosmos 1536 2.7 22:34:39 36° S 22:36:11 83° E 22:40:12 10° NNE
Cosmos 2333 Rocket 2.2 22:31:59 10° NW 22:37:49 86° NE 22:41:19 25° SE
Cosmos 1666 2.6 22:37:32 36° SSW 22:38:58 78° WNW 22:42:45 10° N
Cosmos 1743 3.5 22:38:17 32° SE 22:39:18 39° E 22:42:59 10° NNE
Cosmos 1271 Rocket 2.7 22:35:45 10° NNW 22:39:32 72° ENE 22:40:47 40° SSE
NOSS 0 Rocket 4.3 22:35:45 10° NW 22:41:57 62° NE 22:47:14 15° SE
Cosmos 2237 Rocket 3.2 22:36:35 10° NNW 22:42:02 44° NE 22:47:26 10° ESE
Cosmos 1356 3.3 22:41:30 43° SSW 22:42:31 81° WNW 22:45:59 10° NNE
MOS 1-B Rocket 3.9 22:36:53 10° NNE 22:42:44 75° WNW 22:46:44 20° SSW
Cosmos 2016 Rocket 4.2 22:39:51 21° SSW 22:44:17 75° WNW 22:50:43 10° N
Cosmos 2061 Rocket 4.1 22:41:22 21° SSW 22:45:40 74° WNW 22:51:54 10° N
Lacrosse 4 Rocket 2.6 22:45:23 26° ESE 22:45:44 26° ESE 22:49:14 10° ENE
Cosmos 1867 4.3 22:47:02 10° WSW 22:52:24 56° NNW 22:57:49 10° NE
Cosmos 1733 Rocket 3.0 22:50:59 33° SSW 22:52:58 81° WNW 22:57:25 10° N
Thor Agena Rocket 3.5 22:48:54 10° NNE 22:53:59 79° WNW 22:57:00 25° SSW
Cosmos 44 Rocket 3.3 22:49:29 10° NW 22:54:27 90° SW 22:57:31 24° SE
SL-27 R/B 3.4 22:53:08 21° WSW 22:54:57 42° WNW 22:58:10 10° NNE
Cosmos 836 Rocket 4.5 22:50:22 10° NNW 22:55:35 75° WSW 22:58:04 32° SSE
CENTAUR R/B 2.7 22:52:40 10° SW 22:59:01 87° SE 23:06:37 10° NE
Cosmos 968 Rocket 4.0 22:59:01 30° SSE 23:00:51 41° ESE 23:05:39 10° NE
SL-24 DEB 4.4 22:58:28 10° N 23:03:16 67° E 23:05:18 34° SSE
Cosmos 1975 3.7 23:02:22 30° SE 23:03:31 36° E 23:07:15 10° NNE
Cosmos 1378 3.7 23:07:52 10° NNW 23:11:29 46° W 23:12:29 36° SW
Cosmos 1782 Rocket 4.2 23:10:37 31° SE 23:12:07 42° E 23:16:13 10° NNE
USA 267 3.3 23:06:33 10° E 23:13:08 85° N 23:19:43 10° W
Cosmos 1707 3.9 23:10:44 10° N 23:14:24 36° ENE 23:16:13 23° ESE
Cosmos 1842 3.2 23:12:27 10° NNW 23:16:26 85° E 23:17:41 42° SSE
Cosmos 2233 Rocket 4.1 23:14:30 25° SSW 23:18:22 76° WNW 23:24:44 10° N
Cosmos 2344 4.2 23:09:52 10° NW 23:18:35 87° NE 23:30:39 10° SE
Cosmos 1464 Rocket 4.4 23:15:36 26° SSE 23:18:57 54° E 23:24:58 10° NNE
Cosmos 1908 Rocket 3.5 23:18:33 38° S 23:20:11 80° E 23:24:35 10° NNE
Helios 1B rocket 3.9 23:17:06 10° NE 23:20:30 25° E 23:21:48 21° ESE
Meteor 1-21 4.3 23:16:20 10° NNW 23:22:12 85° ENE 23:25:21 29° SSE
SL-16 R/B 4.3 23:20:51 10° WNW 23:23:34 14° W 23:26:08 10° WSW
Lacrosse 5 4.0 23:23:06 10° WSW 23:24:41 12° WSW 23:24:41 12° WSW
Cosmos 2227 Rocket 4.3 23:22:42 10° ESE 23:25:15 14° E 23:28:00 10° ENE
NOSS 3-2 (A) 4.1 23:19:37 10° WSW 23:25:42 63° NNW 23:32:51 10° ENE
Cosmos 2322 4.3 23:21:59 10° NW 23:27:17 41° WSW 23:29:31 29° SSW
NOSS 3-2 (C) 3.8 23:25:23 10° WSW 23:31:28 72° NNW 23:38:35 10° NE
Cosmos 1833 4.1 23:28:44 26° SSW 23:32:04 87° SE 23:37:48 10° NE
COSMOS 2487 2.5 23:32:14 44° SW 23:33:10 72° WNW 23:36:38 10° NNE
Nadezhda 4 Rocket 4.1 23:27:52 10° N 23:34:13 75° ENE 23:38:04 25° SSE
Cosmos 2219 Rocket 2.6 23:30:28 10° NW 23:35:56 49° WSW 23:38:19 30° S
Cosmos 2084 Rocket 3.5 23:35:30 19° WSW 23:38:32 78° NNW 23:42:54 10° NE
Cosmos 1975 Rocket 3.1 23:36:13 10° NNW 23:40:43 69° W 23:42:25 37° S
Cosmos 2082 Rocket 4.4 23:36:21 10° W 23:41:00 25° NNW 23:45:39 10° NNE
Cosmos 1437 3.3 23:40:57 10° N 23:43:52 46° ENE 23:44:31 38° ESE
Cosmos 2322 Rocket 4.4 23:43:57 10° WNW 23:45:40 11° W 23:47:23 10° WSW
Okean 2 Rocket 4.0 23:45:22 27° SE 23:47:16 40° E 23:51:29 10° NNE
Cosmos 2034 Rocket 4.3 23:43:53 26° SSE 23:47:25 61° E 23:53:39 10° NNE
Landsat 4 3.8 23:44:18 10° NNE 23:48:06 63° ESE 23:49:12 41° SSE
Cosmos 1503 Rocket 4.2 23:45:55 32° S 23:48:24 65° ESE 23:53:44 10° NNE
Cosmos 1092 Rocket 4.3 23:42:10 10° N 23:48:26 63° ENE 23:52:44 20° SSE
Cosmos 1072 Rocket 4.4 23:46:51 29° S 23:50:12 86° E 23:56:22 10° NNE
Helios 1A 3.8 23:49:48 31° SW 23:51:04 38° W 23:55:03 10° NNW
CZ-2D R/B 4.0 23:47:02 10° NE 23:51:10 21° E 23:54:54 11° SE
ERBS 2.3 23:48:02 10° WNW 23:51:02 53° SW 23:51:02 53° SW
SL-16 R/B 3.0 23:46:38 10° NNW 23:52:14 53° NE 23:57:48 10° ESE
SL-16 R/B 3.3 23:46:16 10° SE 23:52:15 51° ENE 23:58:17 10° NNW
Cosmos 1300 Rocket 4.3 23:52:28 28° SE 23:54:13 42° E 23:58:19 10° NNE
Cosmos 1544 3.4 23:54:38 39° SW 23:55:45 58° WNW 23:59:24 10° N
